"2006/01/01",  3.0,  3.2,  2.8
"2006/01/02",  3.3,  3.5,  3.2
"2006/01/03",  3.2,  3.5,  3.0
"2006/01/04",  2.9,  3.3,  2.7
"2006/01/05",  2.7,  2.9,  2.5
"2006/01/06",  2.3,  2.7,  2.1
"2006/01/07",  2.1,  2.4,  1.9
"2006/01/08",  2.1,  2.4,  1.8
"2006/01/09",  2.0,  2.2,  1.8
"2006/01/10",  2.3,  2.6,  2.2
"2006/01/11",  2.4,  2.7,  2.2
"2006/01/12",  2.5,  2.7,  2.3
"2006/01/13",  2.5,  2.7,  2.3
"2006/01/14",  2.7,  3.3,  2.5
"2006/01/15",  3.8,  4.5,  3.3
"2006/01/16",  4.4,  4.6,  4.2
"2006/01/17",  4.8,  5.1,  4.6
"2006/01/18",  4.7,  5.1,  4.5
"2006/01/19",  4.1,  4.8,  3.8
"2006/01/20",  3.5,  4.0,  3.2
"2006/01/21",  3.3,  3.6,  3.0
"2006/01/22",  2.9,  3.1,  2.7
"2006/01/23",  2.5,  2.7,  2.4
"2006/01/24",  2.2,  2.4,  2.1
"2006/01/25",  2.0,  2.2,  1.8
"2006/01/26",  2.0,  2.1,  1.8
"2006/01/27",  2.0,  2.4,  1.8
"2006/01/28",  2.3,  2.6,  2.0
"2006/01/29",  2.4,  2.6,  2.1
"2006/01/30",  2.5,  3.1,  2.3
"2006/01/31",  2.9,  3.1,  2.8
"2006/02/01",  3.2,  3.5,  3.0
"2006/02/02",  3.4,  3.7,  3.1
"2006/02/03",  3.8,  4.3,  3.6
"2006/02/04",  3.8,  4.3,  3.5
"2006/02/05",  3.1,  3.7,  2.7
"2006/02/06",  2.4,  2.9,  2.0
"2006/02/07",  2.2,  2.6,  2.0
"2006/02/08",  2.7,  3.4,  2.3
"2006/02/09",  3.1,  3.4,  2.9
"2006/02/10",  2.8,  3.2,  2.5
"2006/02/11",  2.7,  3.2,  2.4
"2006/02/12",  3.2,  3.5,  2.9
"2006/02/13",  3.1,  3.5,  2.7
"2006/02/14",  3.2,  3.8,  2.8
"2006/02/15",  4.1,  5.0,  3.8
"2006/02/16",  5.1,  5.2,  5.0
"2006/02/17",  4.9,  5.0,  4.8
"2006/02/18",  4.5,  4.9,  4.2
"2006/02/19",  4.6,  4.9,  4.5
"2006/02/20",  4.8,  4.9,  4.7
"2006/02/21",  4.9,  5.3,  4.7
"2006/02/22",  5.4,  6.1,  5.2
"2006/02/23",  6.2,  6.8,  5.9
"2006/02/24",  6.4,  6.8,  6.0
"2006/02/25",  5.9,  6.3,  5.5
"2006/02/26",  6.2,  6.5,  5.9
"2006/02/27",  6.7,  7.1,  6.5
"2006/02/28",  6.6,  7.1,  6.2
"2006/03/01",  5.9,  6.2,  5.8
"2006/03/02",  6.0,  6.3,  5.8
"2006/03/03",  6.2,  6.5,  5.9
"2006/03/04",  6.2,  6.6,  5.7
"2006/03/05",  6.2,  6.6,  5.8
"2006/03/06",  6.3,  6.7,  5.9
"2006/03/07",  6.9,  7.3,  6.7
"2006/03/08",  7.2,  7.9,  6.8
"2006/03/09",  7.5,  7.9,  7.2
"2006/03/10",  7.3,  7.6,  7.2
"2006/03/11",  7.5,  8.4,  7.1
"2006/03/12",  8.3,  8.5,  8.1
"2006/03/13",  8.1,  8.5,  7.8
"2006/03/14",  7.7,  8.3,  7.2
"2006/03/15",  7.5,  8.0,  7.0
"2006/03/16",  7.7,  8.1,  7.4
"2006/03/17",  8.4,  8.9,  8.1
"2006/03/18",  8.4,  8.9,  7.9
"2006/03/19",  8.8,  9.1,  8.6
"2006/03/20",  8.2,  9.0,  7.7
"2006/03/21",  7.8,  8.3,  7.4
"2006/03/22",  8.0,  8.3,  7.5
"2006/03/23",  8.2,  8.5,  8.0
"2006/03/24",  8.6,  9.3,  8.2
"2006/03/25",  9.0,  9.4,  8.6
"2006/03/26",  9.0,  9.4,  8.8
"2006/03/27",  9.2,  9.7,  8.8
"2006/03/28",  9.6, 10.2,  9.3
"2006/03/29", 10.1, 10.2,  9.8
"2006/03/30",  9.3, 10.0,  8.8
"2006/03/31",  9.1,  9.5,  8.6
"2006/04/01",  9.1,  9.7,  8.5
"2006/04/02",  9.6,  9.8,  9.4
"2006/04/03",  9.8, 10.3,  9.4
"2006/04/04",  9.9, 10.5,  9.3
"2006/04/05", 10.3, 10.5,  9.9
"2006/04/06",  9.6, 10.3,  9.1
"2006/04/07",  9.9, 10.3,  9.6
"2006/04/08",  9.4,  9.8,  9.2
"2006/04/09",  9.5, 10.1,  9.1
"2006/04/10",  9.8, 10.1,  9.6
"2006/04/11",  9.7, 10.1,  9.4
"2006/04/12", 10.6, 11.1, 10.1
"2006/04/13", 11.3, 12.0, 11.1
"2006/04/14", 11.8, 12.0, 11.6
"2006/04/15", 11.1, 11.8, 10.8
"2006/04/16", 10.6, 11.0, 10.3
"2006/04/17", 11.2, 12.1, 10.7
"2006/04/18", 12.0, 12.7, 11.5
"2006/04/19", 12.5, 12.8, 12.3
"2006/04/20", 12.7, 12.9, 12.5
"2006/04/21", 12.4, 12.9, 12.0
"2006/04/22", 12.0, 12.6, 11.4
"2006/04/23", 12.4, 12.7, 12.0
"2006/04/24", 12.8, 13.7, 12.4
"2006/04/25", 13.1, 13.7, 12.5
"2006/04/26", 12.0, 12.6, 11.5
"2006/04/27", 12.1, 12.4, 11.9
"2006/04/28", 12.2, 13.2, 11.6
"2006/04/29", 12.9, 13.2, 12.6
"2006/04/30", 13.2, 14.1, 12.7
"2006/05/01", 14.4, 15.4, 14.0
"2006/05/02", 15.1, 15.4, 14.5
"2006/05/03", 14.0, 14.6, 13.5
"2006/05/04", 14.3, 15.0, 13.9
"2006/05/05", 14.9, 15.5, 14.5
"2006/05/06", 15.5, 16.1, 15.1
"2006/05/07", 15.8, 16.1, 15.7
"2006/05/08", 15.4, 15.7, 15.0
"2006/05/09", 14.6, 15.2, 14.2
"2006/05/10", 15.1, 15.4, 14.9
"2006/05/11", 15.5, 15.8, 15.3
"2006/05/12", 15.6, 15.9, 15.2
"2006/05/13", 15.1, 15.9, 14.4
"2006/05/14", 14.1, 14.4, 13.8
"2006/05/15", 14.6, 15.4, 14.1
"2006/05/16", 15.3, 15.4, 15.1
"2006/05/17", 15.3, 15.8, 14.9
"2006/05/18", 15.7, 15.9, 15.4
"2006/05/19", 15.8, 16.3, 15.6
"2006/05/20", 16.8, 17.8, 16.2
"2006/05/21", 17.6, 18.2, 17.1
"2006/05/22", 17.7, 18.2, 17.4
"2006/05/23", 17.4, 17.8, 17.1
"2006/05/24", 17.5, 18.1, 17.1
"2006/05/25", 17.5, 18.1, 17.0
"2006/05/26", 17.4, 18.0, 17.2
"2006/05/27", 16.9, 17.2, 16.7
"2006/05/28", 17.1, 17.5, 16.9
"2006/05/29", 17.7, 18.3, 17.3
"2006/05/30", 18.4, 19.1, 17.9
"2006/05/31", 19.0, 19.8, 18.4
"2006/06/01", 19.7, 20.3, 19.1
"2006/06/02", 19.9, 20.3, 19.6
"2006/06/03", 19.6, 19.9, 19.3
"2006/06/04", 19.3, 19.8, 19.0
"2006/06/05", 18.9, 19.4, 18.6
"2006/06/06", 18.7, 19.2, 18.4
"2006/06/07", 18.9, 19.2, 18.6
"2006/06/08", 18.8, 19.2, 18.6
"2006/06/09", 18.3, 18.8, 18.0
"2006/06/10", 18.0, 18.7, 17.6
"2006/06/11", 18.6, 18.7, 18.4
"2006/06/12", 18.3, 18.8, 17.9
"2006/06/13", 18.7, 18.9, 18.5
"2006/06/14", 18.9, 19.4, 18.7
"2006/06/15", 19.2, 19.4, 19.0
"2006/06/16", 19.3, 19.6, 19.2
"2006/06/17", 19.8, 20.6, 19.4
"2006/06/18", 20.5, 20.8, 20.1
"2006/06/19", 19.9, 20.6, 19.5
"2006/06/20", 20.7, 21.3, 20.3
"2006/06/21", 20.9, 21.3, 20.7
"2006/06/22", 20.5, 20.8, 20.3
"2006/06/23", 20.6, 21.1, 20.3
"2006/06/24", 21.1, 21.9, 20.7
"2006/06/25", 21.5, 21.9, 21.4
"2006/06/26", 21.3, 21.5, 21.1
"2006/06/27", 21.3, 22.2, 20.8
"2006/06/28", 22.2, 22.8, 21.9
"2006/06/29", 22.8, 23.4, 22.4
"2006/06/30", 23.3, 23.6, 23.0
"2006/07/01", 23.1, 23.6, 22.9
"2006/07/02", 22.9, 23.1, 22.7
"2006/07/03", 23.0, 23.5, 22.7
"2006/07/04", 23.3, 23.7, 23.0
"2006/07/05", 23.2, 23.7, 22.6
"2006/07/06", 22.3, 22.7, 22.2
"2006/07/07", 22.1, 22.6, 21.9
"2006/07/08", 22.7, 23.3, 22.4
"2006/07/09", 23.0, 23.3, 22.8
"2006/07/10", 22.8, 23.0, 22.6
"2006/07/11", 23.0, 23.5, 22.7
"2006/07/12", 23.4, 23.6, 23.3
"2006/07/13", 23.6, 24.2, 23.4
"2006/07/14", 24.3, 24.8, 23.9
"2006/07/15", 24.7, 25.2, 24.4
"2006/07/16", 24.9, 25.2, 24.8
"2006/07/17", 24.2, 24.9, 22.5
"2006/07/18", 22.1, 22.5, 21.8
"2006/07/19", 21.2, 21.9, 20.8
"2006/07/20", 21.0, 21.3, 20.8
"2006/07/21", 21.1, 21.3, 21.0
"2006/07/22", 21.1, 21.5, 20.9
"2006/07/23", 21.6, 21.9, 21.5
"2006/07/24", 21.9, 22.0, 21.9
"2006/07/25", 21.9, 22.3, 21.7
"2006/07/26", 22.6, 23.3, 22.2
"2006/07/27", 23.3, 23.7, 23.0
"2006/07/28", 23.6, 23.8, 23.4
"2006/07/29", 23.7, 24.0, 23.4
"2006/07/30", 23.8, 24.0, 23.5
"2006/07/31", 23.4, 23.8, 23.0
"2006/08/01", 22.9, 23.4, 22.7
"2006/08/02", 22.5, 22.7, 22.3
"2006/08/03", 22.7, 23.4, 22.4
"2006/08/04", 23.5, 24.2, 23.2
"2006/08/05", 24.2, 24.7, 23.8
"2006/08/06", 24.7, 25.1, 24.4
"2006/08/07", 25.0, 25.5, 24.6
"2006/08/08", 25.1, 25.5, 24.9
"2006/08/09", 24.5, 24.9, 24.1
"2006/08/10", 24.1, 24.7, 23.8
"2006/08/11", 24.4, 24.7, 24.2
"2006/08/12", 24.3, 24.5, 24.2
"2006/08/13", 23.9, 24.2, 23.7
"2006/08/14", 24.1, 24.5, 23.9
"2006/08/15", 24.3, 24.4, 24.1
"2006/08/16", 24.1, 24.3, 24.0
"2006/08/17", 24.4, 24.8, 24.2
"2006/08/18", 24.9, 25.5, 24.7
"2006/08/19", 25.3, 25.5, 25.2
"2006/08/20", 25.3, 25.5, 25.1
"2006/08/21", 25.3, 25.7, 25.1
"2006/08/22", 25.4, 25.6, 25.1
"2006/08/23", 25.4, 25.6, 25.1
"2006/08/24", 25.4, 25.6, 25.2
"2006/08/25", 25.4, 25.5, 25.2
"2006/08/26", 25.1, 25.4, 24.9
"2006/08/27", 24.6, 24.9, 24.4
"2006/08/28", 24.3, 24.6, 24.1
"2006/08/29", 24.3, 24.9, 24.0
"2006/08/30", 24.7, 24.9, 24.6
"2006/08/31", 24.3, 24.6, 24.0
"2006/09/01", 24.1, 24.6, 23.6
"2006/09/02", 23.3, 23.6, 22.9
"2006/09/03", 23.5, 23.9, 23.2
"2006/09/04", 23.8, 24.1, 23.5
"2006/09/05", 24.1, 24.6, 23.8
"2006/09/06", 24.2, 24.6, 23.8
"2006/09/07", 23.5, 23.8, 23.4
"2006/09/08", 23.4, 23.5, 23.3
"2006/09/09", 23.4, 23.7, 23.3
"2006/09/10", 23.8, 24.3, 23.5
"2006/09/11", 24.1, 24.3, 23.9
"2006/09/12", 23.6, 24.0, 23.2
"2006/09/13", 22.6, 23.2, 22.2
"2006/09/14", 21.6, 22.2, 21.2
"2006/09/15", 21.1, 21.3, 20.8
"2006/09/16", 21.1, 21.5, 20.7
"2006/09/17", 21.3, 21.5, 21.2
"2006/09/18", 21.3, 21.7, 21.1
"2006/09/19", 21.9, 22.4, 21.6
"2006/09/20", 22.3, 22.8, 21.9
"2006/09/21", 22.5, 22.8, 22.1
"2006/09/22", 22.2, 22.7, 22.0
"2006/09/23", 21.7, 22.1, 21.5
"2006/09/24", 21.3, 21.7, 21.0
"2006/09/25", 21.3, 21.5, 21.0
"2006/09/26", 20.9, 21.4, 20.7
"2006/09/27", 20.2, 20.7, 20.0
"2006/09/28", 20.1, 20.7, 19.7
"2006/09/29", 20.6, 20.8, 20.4
"2006/09/30", 20.5, 20.8, 20.3
"2006/10/01", 20.5, 20.7, 20.3
"2006/10/02", 20.2, 20.6, 20.0
"2006/10/03", 20.0, 20.5, 19.8
"2006/10/04", 20.3, 20.5, 20.2
"2006/10/05", 20.2, 20.4, 20.0
"2006/10/06", 18.9, 20.0, 17.5
"2006/10/07", 17.1, 17.6, 16.6
"2006/10/08", 17.5, 17.9, 17.2
"2006/10/09", 17.6, 18.1, 17.2
"2006/10/10", 17.9, 18.4, 17.5
"2006/10/11", 18.3, 18.7, 17.9
"2006/10/12"," * "," * "," * "
"2006/10/13"," * "," * "," * "
"2006/10/14"," * "," * "," * "
"2006/10/15"," * "," * "," * "
"2006/10/16"," * "," * "," * "
"2006/10/17"," * "," * "," * "
"2006/10/18"," * "," * "," * "
"2006/10/19"," * "," * "," * "
"2006/10/20"," * "," * "," * "
"2006/10/21"," * "," * "," * "
"2006/10/22"," * "," * "," * "
"2006/10/23"," * "," * "," * "
"2006/10/24", 16.8, 17.6, 16.0
"2006/10/25", 15.7, 16.0, 15.5
"2006/10/26", 15.9, 16.3, 15.5
"2006/10/27", 16.3, 16.4, 16.2
"2006/10/28", 16.2, 16.6, 15.9
"2006/10/29", 16.5, 16.8, 16.3
"2006/10/30", 16.6, 16.8, 16.3
"2006/10/31", 16.5, 16.8, 16.2
"2006/11/01", 16.4, 16.8, 16.1
"2006/11/02", 16.2, 16.5, 16.0
"2006/11/03", 15.9, 16.2, 15.7
"2006/11/04", 15.8, 16.1, 15.6
"2006/11/05", 15.9, 16.3, 15.6
"2006/11/06", 16.0, 16.2, 15.8
"2006/11/07", 16.1, 16.2, 15.9
"2006/11/08", 15.2, 16.0, 14.8
"2006/11/09", 14.7, 15.1, 14.4
"2006/11/10", 14.7, 14.9, 14.4
"2006/11/11", 14.9, 15.0, 14.8
"2006/11/12", 14.6, 14.9, 14.4
"2006/11/13", 13.6, 14.4, 13.2
"2006/11/14", 13.3, 13.5, 13.0
"2006/11/15", 13.7, 14.0, 13.5
"2006/11/16", 13.6, 14.0, 13.3
"2006/11/17", 13.0, 13.6, 12.7
"2006/11/18", 12.3, 12.7, 12.0
"2006/11/19", 12.2, 12.5, 12.0
"2006/11/20", 11.9, 12.3, 11.6
"2006/11/21", 12.4, 12.7, 12.2
"2006/11/22", 12.4, 12.7, 12.1
"2006/11/23", 12.2, 12.5, 12.0
"2006/11/24", 11.8, 12.0, 11.6
"2006/11/25", 11.1, 11.7, 10.8
"2006/11/26", 10.6, 11.0, 10.3
"2006/11/27", 11.0, 11.6, 10.7
"2006/11/28", 11.6, 11.6, 11.5
"2006/11/29", 11.5, 11.8, 11.3
"2006/11/30", 11.5, 11.8, 11.2
"2006/12/01", 10.7, 11.2, 10.3
"2006/12/02", 10.2, 10.6,  9.9
"2006/12/03",  9.8, 10.2,  9.6
"2006/12/04",  9.2,  9.6,  8.9
"2006/12/05",  8.7,  9.2,  8.4
"2006/12/06",  8.4,  8.7,  8.1
"2006/12/07",  8.1,  8.4,  7.9
"2006/12/08",  8.0,  8.3,  7.9
"2006/12/09",  8.3,  8.4,  8.2
"2006/12/10",  8.3,  8.7,  8.1
"2006/12/11",  8.5,  8.7,  8.4
"2006/12/12",  8.2,  8.6,  8.0
"2006/12/13",  8.1,  8.4,  7.9
"2006/12/14",  8.4,  8.6,  8.2
"2006/12/15",  8.6,  9.0,  8.5
"2006/12/16",  8.8,  9.0,  8.5
"2006/12/17",  9.0,  9.1,  8.9
"2006/12/18",  8.7,  9.1,  8.5
"2006/12/19",  8.2,  8.7,  8.0
"2006/12/20",  7.7,  8.0,  7.5
"2006/12/21",  7.9,  8.1,  7.8
"2006/12/22",  8.1,  8.2,  8.1
"2006/12/23",  7.8,  8.2,  7.5
"2006/12/24",  7.4,  7.8,  7.2
"2006/12/25",  7.4,  7.5,  7.2
"2006/12/26",  7.4,  8.1,  7.2
"2006/12/27",  9.3,  9.8,  8.1
"2006/12/28",  9.1,  9.7,  8.8
"2006/12/29",  8.2,  8.9,  7.7
"2006/12/30",  7.1,  7.7,  6.7
"2006/12/31",  6.4,  6.9,  6.1
